Voltar ao catálogo

STARLINK-31235

AtivoComunicaçõesVLEO
NORAD 59038·PAYLOAD·🇺🇸 United States

Lançado Feb 25, 2024 de Cape Canaveral Space Force Station

Loading…

Próximas Passagens (próximas 24 horas)

TLE

AtualizadoSource: CelesTrak SupGP

Época: Sep 14, 2026, 22:24 UTC

1 59038C 24038R   26257.93381944  .00026512  00000+0  96023-3 0  2570
2 59038  43.0023  34.7600 0001461 272.4251   3.2598 15.27566079    10

Acompanhe STARLINK-31235 em tempo real com AllMySat

Download on the App Store